www.pogodaiklimat.ru

Погода и климат >> Архив погоды >> Гондурас >> Тела


ПОГОДА в Теле

  • Прогноз погоды в Теле
  • Монитор погоды в Теле

АРХИВ ПОГОДЫ в Теле

Время (UTC), дата Ветер
(напр.,м/с)
 
Видим.   Явления Облачность Т
(С)
Тd
(С)
f
(%)
Тe
(С)
Тes
(С)
Комфортность P
(гПа)
Po
(гПа)
Тmin
(С)
Tmax
(С)
R
(мм)
R24
(мм)
S
(см)
21 11.09 штиль 0 18 км мгла {туман} 9/8 720 м
[Cb cap]
+31.3 +28.2 84 +52 +54 опасность
перегрева
1009.4 1008.9
00 12.09 штиль 0 18 км мгла {туман} 8/5 720 м
[Cb cap Cs]
+29.5 +27.2 87 +47 +47 опасность
перегрева
1009.1 1008.6 +22.5 +33.4
12 12.09 штиль 0 20 км {метель} 9/6 600 м
[Cb calv Ac und Cs]
+33.1 +22.8 55 +32 +32 жарко 1013.2 1012.0 +22.8 +33.1 3
15 12.09 С 2 10 км мгла {туман} 9/0 600 м
[Ac As Cs]
+30.7 +25.2 73 +45 +49 опасность
перегрева
1011.0 1010.5
18 12.09 СВ 2 20 км мгла {туман} 6/0 600 м
[Ac As Cs]
+31.4 +25.4 71 1010.0
21 12.09 В 1 10 км 8/0 600 м
[Ac As Cs]
+32.4 +25.8 68 +48 +53 опасность
перегрева
1009.5 1009.0
00 13.09 штиль 0 18 км 8/1 600 м
[Cb cap Ac trans Ci sp]
+33.6 +25.1 61 +44 +44 опасность
перегрева
1008.0 1007.5 +25.1 +33.6
12 13.09 штиль 0 18 км мгла 9/5 600 м
[Cb cap Cs]
+24.7 +24.7 100 +35 +35 очень
душно
1009.8 1009.3 +22.8 +33.6 20
15 13.09 штиль 0 20 км мгла {туман} 9/4 600 м
[Cb cap Cs]
+30.8 +25.5 73 +45 +53 опасность
перегрева
1010.3 1009.8
18 13.09 С 1 20 км мгла {туман} 8/5 600 м
[Cb cap Cs]
+31.9 +9.0 24 +31 +42 жарко 1009.5 1009.2 +22.7 +31.9
21 13.09 С 2 10 км мгла {туман} 8/5 600 м
[Cb cap Cs]
+32.0 +28.1 80 +53 +57 опасность
перегрева
1009.1 1008.6
00 14.09 штиль 0 18 км мгла {туман} 8/4 800 м
[Cu med, cong Cs]
+29.1 +25.8 82 +43 +43 опасность
перегрева
1008.5 1008.0 +22.8 +33.5
12 14.09 штиль 0 10 км мгла 6/6 900 м
[Cu med, cong Ac trans Cs]
+24.9 +23.3 91 +33 +33 очень
душно
1010.5 1010.0 +23.1 +34.0
18 14.09 С 1 20 км мгла {туман} 6/6 840 м
[Cu med, cong]
+31.4 +25.6 71 +46 +56 опасность
перегрева
1010.5 1010.0 +25.2 +31.4
21 14.09 С 2 20 км мгла {туман} 6/6 840 м
[Cb cap]
+31.6 +26.2 73 +48 +51 опасность
перегрева
1010.0 1009.5
15 15.09 С 1 20 км мгла {туман} 9/4 720 м
[Cu med, cong Cs]
+30.5 +25.0 73 +44 +51 опасность
перегрева
1010.3 1009.8
18 15.09 СВ 2 20 км мгла {туман} 9/6 840 м
[Cb cap Cs]
+32.0 +26.4 72 +48 +55 опасность
перегрева
1009.5 1009.0 +25.2 +32.0
21 15.09 С 2 20 км мгла {туман} 9/6 840 м
[Cu med, cong Cs]
+32.0 +26.4 72 +48 +52 опасность
перегрева
1009.5 1009.0
00 16.09 штиль 0 10 км мгла {туман} 9/6 840 м
[Cu med, cong Ac As]
+30.0 +25.4 76 +44 +44 опасность
перегрева
1009.5 1009.0 +25.4 +33.4
12 16.09 штиль 0 18 км мгла 5/3 600 м
[Cu hum Ci sp]
+24.8 +24.8 100 +35 +35 очень
душно
1012.5 1012.0 +23.0 +33.0
15 16.09 штиль 0 18 км мгла {туман} 9/4 720 м
[Cu med, cong Ci sp]
+30.1 +25.3 76 +44 +52 опасность
перегрева
1012.9 1012.4
18 16.09 С 2 20 км мгла {туман} 9/4 800 м
[Cu med, cong Ci sp]
+32.3 +26.7 72 +49 +60 опасность
перегрева
1011.6 1011.1 +23.3 +32.3
21 16.09 С 3 18 км гроза без осадков {туман} 5/5 720 м
[Cb cap]
+32.3 +26.7 72 +49 +53 опасность
перегрева
1009.5 1009.0
00 17.09 В 3 15 км мгла {туман} 6/6 720 м
[Cb cap]
+30.4 +26.3 79 +46 +46 опасность
перегрева
1009.5 1009.0 +23.3 +33.1
12 17.09 штиль 0 10 км мгла 9/6 720 м
[Cu med, cong Ac As]
+23.7 +22.8 95 +31 +31 очень
душно
1012.5 1012.0 +22.8 +33.0 9
15 17.09 С 1 20 км мгла {туман} 9/5 720 м
[Cu med, cong Ci]
+29.5 +24.1 73 +41 +47 опасность
перегрева
1012.5 1012.0
18 17.09 В 3 20 км мгла {туман} 5/5 800 м
[Cu med, cong]
+30.7 +24.8 71 +44 +52 опасность
перегрева
1012.5 1012.0 +24.8 +30.7
21 17.09 СВ 1 20 км мгла {туман} 6/6 840 м
[Cu med, cong]
+31.0 +25.5 73 +46 +50 опасность
перегрева
1010.5 1010.0
00 18.09 СВ 1 20 км мгла {туман} 9/6 840 м
[Cu med, cong Ac trans Cs]
+30.2 +24.5 72 +43 +43 опасность
перегрева
1010.5 1010.0 +25.1 +33.4
12 18.09 штиль 0 18 км мгла 8/5 720 м
[Cb cap Ci sp]
+24.8 +24.1 96 +34 +34 очень
душно
1011.8 1011.3 +23.0 +32.4 1
15 18.09 штиль 0 20 км мгла {туман} 6/4 720 м
[Cu med, cong Ci sp]
+29.3 +25.3 79 +43 +51 опасность
перегрева
1012.5 1012.0

 

Местоположение метеостанции Тела (Гондурас): широта 15.72 долгота -87.48 высота над уровнем моря 3 м.

В архиве по умолчанию представлена погода в Теле за последнюю неделю. Архивные данные за месяц целиком и за предыдущие месяцы, начиная с января 2011 года, Вы можете получить, выбрав интересующий диапазон дат из раскрывающегося списка и нажав кнопку "Ввод!".


*Определитесь, кто Вы:
робот инопланетянин человек

Внимание! Время в таблицах - всемирное. Для получения местного времени необходимо прибавить поправку, которая равна -6 ч.

Смотрите также архив погоды в соседних городах и на ближайших метеорологических станциях:

Погода в Ла-Лиме (Гондурас) (57 км)
Погода в Ла-Сейбе (Гондурас) (66 км)
Погода в Йоро (Гондурас) (73 км)
Погода в Пуэрто-Барриосе (Гватемала) (120 км)
Погода на Роатане (Гондурас) (123 км)
Погода в Трухильо (Гондурас) (168 км)
Погода в Ла-Эсперансе (Гондурас) (172 км)
Погода в Санта-Роза-де-Копане (Гондурас) (174 км)
Погода в Тегусигальпе (Гондурас) (188 км)
Погода в Катакамасе (Гондурас) (190 км)

Пояснения к столбцам:

Ветер - указаны скорость ветра в м/с - средняя за 10 мин, порывы в срок и между сроками (в фигурных скобках) и направление, откуда дует ветер: С - северный, СВ - северо-восточный, В - восточный, ЮВ - юго-восточный, Ю - южный, ЮЗ - юго-западный, З - западный, СЗ - северо-западный.
Видимость - горизонтальная дальность видимости в метрах или километрах. При видимости от 1 до 10 км при отсутствии осадков обычно наблюдается дымка, при ухудшении видимости до 1 км и менее - туман. В сухую погоду видимость может ухудшаться дымом, пылью или мглою.
Явления - указаны атмосферные явления, наблюдавшиеся в срок или в последний час перед сроком; фигурными скобками обозначены явления, наблюдавшиеся между сроками (за 1-3 часа до срока); квадратными скобками обозначены град или гололедные отложения с указанием их диаметра в мм.
Облачность - указаны через наклонную черту общая и нижняя облачность в баллах и высота нижней границы облаков в метрах; квадратными скобками обозначены формы облаков: Ci - перистые, Cs - перисто-слоистые, Cc - перисто-кучевые, Ac - высококучевые, As - высокослоистые, Sc - слоисто-кучевые, Ns - слоисто-дождевые, Cu - кучевые, Cb - кучево-дождевые. Подробнее классификацию облаков см. в Атласе облаков (PDF).
T - Температура воздуха - температура, измеренная на высоте 2 м над землей.
Td - Температура точки росы - температура, при понижении до которой содержащийся в воздухе водяной пар достигнет насыщения.
f - Относительная влажность воздуха - влажноcть воздуха, измеренная на высоте 2 м над землей.
Te - Эффективная температура - температура, которую ощущает одетый по сезону человек в тени. Характеристика душности погоды. При расчете учитывается влияние влажности воздуха и скорости ветра на теплоощущения человека.
Tes - Эффективная температура на солнце - температура, которую ощущает человек, с поправкой на солнечный нагрев. Характеристика знойности погоды. Зависит от высоты солнца над горизонтом, облачности и скорости ветра. Ночью, в пасмурную погоду, а также при ветре 12 м/с и более поправка равна нулю.
P - Атмосферное давление - приведенное к уровню моря атмосферное давление.
Po - Атмосферное давление - измеренное на уровне метеостанции атмосферное давление.
Tmin - Минимальная температура - минимум температуры воздуха на высоте 2 м над землей.
Tmax - Максимальная температура - максимум температуры воздуха на высоте 2 м над землей.
R - Количество осадков - Количество выпавших осадков за период времени, мм. При наведении курсора мыши на число - период времени, за который выпало указанное количество осадков.
R24 - Количество осадков - Количество выпавших осадков за 24 часа, мм.
S - Снежный покров - Высота снежного покрова, см. При наведении курсора мыши на число - состояние снежного покрова и степень покрытия местности в баллах.